Location: Ladrillo (historical)
(32.8195°N, 117.2231°W)
Time: 22:33:13
(UTC+00:00)

Altair - Pass Details

Date: 03 March 2021
Orbit: 1501 x 1683 km, 47.2° (Epoch: 15 April)

Event Time Altitude Azimuth Distance (km) Brightness Sun altitude
Rises 03:05:41 0° 252° (WSW) 4,626 11.3 -17.3°
Reaches altitude 10° 03:08:48 10° 258° (WSW) 3,652 10.6 -17.9°
Maximum altitude 03:17:43 53° 333° (NNW) 1,820 8.0 -19.8°
Enters shadow 03:26:00 13° 47° (NE) 3,482 9.0 -21.5°
